EJU1LL EDDL-LIMC

Flight info

Callsign EJU1LL
Flight time N/A
Altitude 33000
Route DODEN1T/23L DODEN Y852 NATOR DCT DITON DCT BASGO/N0470F290 Z424 AKASU/N0401F190 Z424 RIXUV
Aircraft A320/M-SDE3FGHIRWY/LB1

Departure

Time 2026-05-04 19:05
Airport Düsseldorf Airport (EDDL)

Arrival

Time N/A
Airport Milan Malpensa International Airport (LIMC)
Time Latitude Longitude Altitude Speed Heading
2026-05-04 18:05 51.27630 6.76370 128 ft 0 kts 340°
2026-05-04 18:37 51.27613 6.76380 125 ft 3 kts 338°
2026-05-04 18:37 51.27592 6.76396 126 ft 3 kts 329°
2026-05-04 18:38 51.27573 6.76417 126 ft 3 kts 307°
2026-05-04 18:38 51.27566 6.76435 127 ft 3 kts 284°
2026-05-04 18:38 51.27564 6.76400 129 ft 3 kts 256°
2026-05-04 18:38 51.27555 6.76365 130 ft 3 kts 247°
2026-05-04 18:39 51.27546 6.76331 127 ft 3 kts 246°
2026-05-04 18:39 51.27536 6.76296 127 ft 3 kts 246°
2026-05-04 18:39 51.27527 6.76262 127 ft 3 kts 248°
2026-05-04 18:39 51.27520 6.76232 128 ft 3 kts 250°
2026-05-04 18:40 51.27513 6.76196 130 ft 3 kts 254°
2026-05-04 18:40 51.27507 6.76160 129 ft 3 kts 254°
2026-05-04 18:40 51.27500 6.76123 130 ft 3 kts 253°
2026-05-04 18:40 51.27493 6.76088 126 ft 3 kts 251°
2026-05-04 18:41 51.27486 6.76058 129 ft 0 kts 249°
2026-05-04 18:43 51.27482 6.76039 126 ft 7 kts 249°
2026-05-04 18:43 51.27468 6.75966 126 ft 6 kts 273°
2026-05-04 18:43 51.27477 6.75908 128 ft 5 kts 285°
2026-05-04 18:44 51.27483 6.75861 126 ft 5 kts 269°
2026-05-04 18:44 51.27477 6.75835 130 ft 9 kts 243°
2026-05-04 18:44 51.27442 6.75675 130 ft 8 kts 288°
2026-05-04 18:44 51.27482 6.75626 129 ft 7 kts 334°
2026-05-04 18:45 51.27534 6.75585 127 ft 9 kts 334°
2026-05-04 18:45 51.27590 6.75541 127 ft 9 kts 334°
2026-05-04 18:45 51.27648 6.75505 128 ft 9 kts 334°
2026-05-04 18:45 51.27702 6.75462 122 ft 9 kts 333°
2026-05-04 18:46 51.27755 6.75418 124 ft 9 kts 332°
2026-05-04 18:46 51.27809 6.75384 124 ft 7 kts
2026-05-04 18:46 51.27843 6.75420 125 ft 5 kts 48°
2026-05-04 18:46 51.27868 6.75472 126 ft 8 kts 52°
2026-05-04 18:47 51.27902 6.75544 126 ft 0 kts 53°
2026-05-04 18:47 51.27920 6.75581 126 ft 8 kts 53°
2026-05-04 18:47 51.27952 6.75650 125 ft 7 kts 52°
2026-05-04 18:48 51.27979 6.75706 127 ft 7 kts 52°
2026-05-04 18:48 51.28009 6.75769 127 ft 9 kts 52°
2026-05-04 18:48 51.28055 6.75864 128 ft 11 kts 52°
2026-05-04 18:48 51.28106 6.75972 124 ft 15 kts 53°
2026-05-04 18:49 51.28164 6.76095 125 ft 13 kts 52°
2026-05-04 18:49 51.28224 6.76219 124 ft 14 kts 52°
2026-05-04 18:49 51.28283 6.76342 122 ft 13 kts 53°
2026-05-04 18:49 51.28338 6.76458 124 ft 13 kts 53°
2026-05-04 18:50 51.28399 6.76588 121 ft 17 kts 53°
2026-05-04 18:50 51.28480 6.76754 124 ft 19 kts 51°
2026-05-04 18:50 51.28558 6.76919 126 ft 18 kts 53°
2026-05-04 18:50 51.28629 6.77069 128 ft 16 kts 53°
2026-05-04 18:51 51.28671 6.77157 127 ft 14 kts 53°
2026-05-04 18:51 51.28746 6.77314 128 ft 12 kts 52°
2026-05-04 18:51 51.28794 6.77414 128 ft 11 kts 52°
2026-05-04 18:51 51.28844 6.77521 130 ft 16 kts 53°
2026-05-04 18:52 51.28912 6.77663 128 ft 16 kts 52°
2026-05-04 18:52 51.28973 6.77791 127 ft 13 kts 53°
2026-05-04 18:52 51.29009 6.77867 128 ft 12 kts 53°
2026-05-04 18:52 51.29055 6.77964 128 ft 11 kts 53°
2026-05-04 18:53 51.29102 6.78066 132 ft 12 kts 53°
2026-05-04 18:53 51.29150 6.78163 135 ft 9 kts 52°
2026-05-04 18:53 51.29180 6.78224 137 ft 4 kts 53°
2026-05-04 18:53 51.29210 6.78270 139 ft 10 kts 36°
2026-05-04 18:54 51.29254 6.78321 141 ft 9 kts 36°
2026-05-04 18:54 51.29313 6.78389 144 ft 7 kts 36°
2026-05-04 18:54 51.29323 6.78400 145 ft 0 kts 36°
2026-05-04 18:57 51.29325 6.78403 145 ft 3 kts 36°
2026-05-04 18:57 51.29342 6.78423 146 ft 0 kts 36°
2026-05-04 18:57 51.29345 6.78426 146 ft 1 kts 36°
2026-05-04 18:57 51.29353 6.78435 147 ft 5 kts 36°
2026-05-04 18:58 51.29377 6.78460 148 ft 3 kts 27°
2026-05-04 18:58 51.29399 6.78469 149 ft 0 kts
2026-05-04 19:03 51.29405 6.78470 149 ft 6 kts
2026-05-04 19:04 51.29466 6.78464 150 ft 8 kts 354°
2026-05-04 19:04 51.29504 6.78446 151 ft 3 kts 303°
2026-05-04 19:04 51.29496 6.78420 150 ft 2 kts 230°
2026-05-04 19:04 51.29463 6.78353 149 ft 26 kts 232°
2026-05-04 19:05 51.29188 6.77777 136 ft 101 kts 233°
2026-05-04 19:05 51.28646 6.76630 162 ft 152 kts 231°
2026-05-04 19:05 51.28015 6.75277 814 ft 151 kts 231°
2026-05-04 19:05 51.27388 6.73928 1496 ft 153 kts 232°
2026-05-04 19:06 51.26715 6.72486 1837 ft 173 kts 231°
2026-05-04 19:06 51.25950 6.70850 2104 ft 195 kts 231°
2026-05-04 19:06 51.25086 6.68998 2439 ft 221 kts 232°
2026-05-04 19:06 51.24119 6.66923 2879 ft 245 kts 232°
2026-05-04 19:07 51.23025 6.64747 3582 ft 255 kts 221°
2026-05-04 19:07 51.21430 6.63546 4431 ft 260 kts 186°
2026-05-04 19:07 51.19615 6.63591 5325 ft 263 kts 176°
2026-05-04 19:07 51.17781 6.63872 6221 ft 266 kts 174°
2026-05-04 19:08 51.15935 6.64285 7041 ft 270 kts 165°
2026-05-04 19:08 51.14285 6.65731 7807 ft 277 kts 138°
2026-05-04 19:08 51.13260 6.68341 8738 ft 285 kts 111°
2026-05-04 19:08 51.13097 6.71543 9378 ft 300 kts 88°
2026-05-04 19:09 51.13282 6.74828 9580 ft 297 kts 89°
2026-05-04 19:09 51.13426 6.78105 9690 ft 297 kts 90°
2026-05-04 19:09 51.13544 6.81387 9790 ft 296 kts 90°
2026-05-04 19:09 51.13653 6.84657 9939 ft 297 kts 90°
2026-05-04 19:10 51.13764 6.88076 10104 ft 322 kts 90°
2026-05-04 19:10 51.13886 6.91771 10318 ft 345 kts 89°
2026-05-04 19:10 51.14020 6.95716 10547 ft 365 kts 89°
2026-05-04 19:10 51.14164 6.99750 11107 ft 373 kts 89°
2026-05-04 19:11 51.14317 7.03892 11790 ft 377 kts 89°
2026-05-04 19:11 51.14472 7.08076 12484 ft 380 kts 89°
2026-05-04 19:11 51.14624 7.12303 13158 ft 384 kts 89°
2026-05-04 19:11 51.14776 7.16586 13749 ft 390 kts 89°
2026-05-04 19:12 51.14927 7.20926 14293 ft 395 kts 89°
2026-05-04 19:12 51.15178 7.29742 15430 ft 400 kts 95°
2026-05-04 19:12 51.14694 7.34077 15977 ft 398 kts 112°
2026-05-04 19:13 51.13433 7.37966 16521 ft 396 kts 128°
2026-05-04 19:13 51.11791 7.41490 17059 ft 398 kts 129°
2026-05-04 19:13 51.10128 7.45028 17619 ft 401 kts 129°
2026-05-04 19:13 51.08448 7.48602 18127 ft 405 kts 129°
2026-05-04 19:14 51.06759 7.52198 18594 ft 409 kts 129°
2026-05-04 19:14 51.05054 7.55831 19043 ft 412 kts 129°
2026-05-04 19:14 51.03333 7.59495 19465 ft 415 kts 129°
2026-05-04 19:14 51.01596 7.63181 19893 ft 419 kts 129°
2026-05-04 19:15 50.99838 7.66904 20333 ft 422 kts 129°
2026-05-04 19:15 50.98052 7.70612 20758 ft 424 kts 133°
2026-05-04 19:15 50.95985 7.73934 21179 ft 423 kts 142°
2026-05-04 19:15 50.93608 7.76670 21603 ft 423 kts 151°
2026-05-04 19:16 50.91127 7.79091 22023 ft 425 kts 151°
2026-05-04 19:16 50.88603 7.81563 22433 ft 428 kts 151°
2026-05-04 19:16 50.86068 7.84061 22830 ft 431 kts 150°
2026-05-04 19:16 50.83519 7.86577 23216 ft 433 kts 151°
2026-05-04 19:17 50.80950 7.89111 23597 ft 436 kts 151°
2026-05-04 19:17 50.78368 7.91649 23934 ft 438 kts 151°
2026-05-04 19:17 50.75770 7.94194 24295 ft 440 kts 151°
2026-05-04 19:17 50.73166 7.96738 24646 ft 441 kts 151°
2026-05-04 19:18 50.70549 7.99289 24969 ft 442 kts 152°
2026-05-04 19:18 50.67925 8.01840 25298 ft 444 kts 152°
2026-05-04 19:18 50.65291 8.04395 25619 ft 445 kts 152°
2026-05-04 19:18 50.62615 8.06837 25923 ft 445 kts 157°
2026-05-04 19:19 50.59750 8.08655 26215 ft 442 kts 166°
2026-05-04 19:19 50.56767 8.09731 26559 ft 439 kts 174°
2026-05-04 19:19 50.53729 8.10191 26878 ft 438 kts 178°
2026-05-04 19:19 50.50687 8.10579 27182 ft 440 kts 178°
2026-05-04 19:20 50.47635 8.10974 27491 ft 440 kts 178°
2026-05-04 19:20 50.44587 8.11372 27913 ft 439 kts 178°
2026-05-04 19:20 50.41546 8.11769 28353 ft 437 kts 178°
2026-05-04 19:20 50.38519 8.12168 28803 ft 435 kts 178°
2026-05-04 19:21 50.35510 8.12561 29212 ft 433 kts 178°
2026-05-04 19:21 50.32508 8.12948 29595 ft 433 kts 178°
2026-05-04 19:21 50.29500 8.13336 29989 ft 432 kts 178°
2026-05-04 19:21 50.26507 8.13728 30348 ft 431 kts 178°
2026-05-04 19:22 50.23524 8.14122 30717 ft 429 kts 178°
2026-05-04 19:22 50.20554 8.14509 31089 ft 428 kts 178°
2026-05-04 19:22 50.17594 8.14889 31460 ft 426 kts 178°
2026-05-04 19:22 50.14649 8.15271 31837 ft 424 kts 178°
2026-05-04 19:23 50.11749 8.15655 32182 ft 423 kts 178°
2026-05-04 19:23 50.08824 8.16056 32527 ft 422 kts 178°
2026-05-04 19:23 50.05903 8.16467 32895 ft 420 kts 178°
2026-05-04 19:23 50.02997 8.16883 33269 ft 419 kts 178°
2026-05-04 19:24 50.00099 8.17298 33638 ft 417 kts 178°
2026-05-04 19:24 49.97218 8.17704 34001 ft 415 kts 178°
2026-05-04 19:24 49.94342 8.18102 34298 ft 414 kts 178°
2026-05-04 19:24 49.91468 8.18496 34577 ft 414 kts 178°
2026-05-04 19:25 49.88599 8.18889 34794 ft 414 kts 178°
2026-05-04 19:25 49.85718 8.19288 34942 ft 416 kts 178°
2026-05-04 19:25 49.82822 8.19689 34979 ft 420 kts 178°
2026-05-04 19:26 49.77000 8.20494 34980 ft 423 kts 178°
2026-05-04 19:26 49.71143 8.21303 34978 ft 423 kts 178°
2026-05-04 19:27 49.65278 8.22104 34977 ft 423 kts 178°
2026-05-04 19:27 49.59408 8.22914 34978 ft 423 kts 178°
2026-05-04 19:28 49.53535 8.23718 34979 ft 424 kts 178°
2026-05-04 19:28 49.47665 8.24522 34980 ft 424 kts 178°
2026-05-04 19:29 49.41792 8.25312 34979 ft 423 kts 178°
2026-05-04 19:29 49.35926 8.26104 34980 ft 423 kts 178°
2026-05-04 19:30 49.30043 8.26904 34982 ft 423 kts 178°
2026-05-04 19:30 49.24215 8.27693 34982 ft 423 kts 178°
2026-05-04 19:31 49.18354 8.28479 34972 ft 423 kts 178°
2026-05-04 19:31 49.12486 8.29266 34976 ft 423 kts 178°
2026-05-04 19:32 49.06630 8.30042 34978 ft 423 kts 178°
2026-05-04 19:32 49.00775 8.30821 34978 ft 422 kts 178°
2026-05-04 19:33 48.94911 8.31364 34973 ft 421 kts 181°
2026-05-04 19:33 48.89090 8.31377 34970 ft 420 kts 183°
2026-05-04 19:34 48.83238 8.31298 34973 ft 421 kts 183°
2026-05-04 19:34 48.77381 8.31324 34964 ft 421 kts 182°
2026-05-04 19:35 48.71514 8.31419 34967 ft 421 kts 182°
2026-05-04 19:35 48.65690 8.31516 34970 ft 422 kts 182°
2026-05-04 19:36 48.59785 8.31589 34973 ft 422 kts 182°
2026-05-04 19:36 48.53949 8.31658 34983 ft 422 kts 182°
2026-05-04 19:37 48.48077 8.31731 34996 ft 422 kts 182°
2026-05-04 19:37 48.42201 8.31808 35000 ft 422 kts 182°
2026-05-04 19:38 48.36315 8.31883 35002 ft 422 kts 182°
2026-05-04 19:38 48.30433 8.31963 34992 ft 423 kts 182°